Hourly Data Report for March 25, 2015

All times are specified in Local Standard Time (LST). Add 1 hour to adjust for Daylight Saving Time where and when it is observed.

Metadata including Station Name, Province, Latitude, Longitude, Elevation, Climate ID, WMO ID, TC ID
PUVIRNITUQ A
QUEBEC
Latitude: 60°03'08.000" N Longitude: 77°17'15.000" W Elevation: 25.30 m
Climate ID: 7106223 WMO ID: TC ID: YPX
Hourly Data Report for March 25, 2015
Temp Definition
°C

Dew Point Temp Definition
°C

Rel Hum Definition
%

Wind Dir Definition
10's deg
Wind Spd Definition
km/h

Visibility Definition
km

Stn Press Definition
kPa

Hmdx Definition

Wind Chill Definition

Weather Definition

00:00 Legend Double Dagger -27.3 -29.8 80 24 26 16.1 101.03 -41 LegendNANA
01:00 Legend Double Dagger -27.2 -29.7 80 23 22 16.1 101.02 -40 LegendNANA
02:00 Legend Double Dagger -27.4 -29.9 80 23 24 16.1 101.01 -41 LegendNANA
03:00 Legend Double Dagger -27.7 -30.3 79 23 24 16.1 101.00 -41 LegendNANA
04:00 Legend Double Dagger -28.3 -30.9 79 23 22 16.1 100.96 -42 LegendNANA
05:00 Legend Double Dagger -28.7 -31.4 78 LegendMM LegendMM LegendMM 100.99 LegendNANA
06:00 Legend Double Dagger -28.6 -31.3 78 21 21 LegendMM 101.00 -42 LegendNANA
07:00 Legend Double Dagger -28.4 -31.1 78 21 17 16.1 101.00 -40 LegendNANA
08:00 Legend Double Dagger -27.8 -30.5 78 20 22 8.1 100.99 -41 Snow
09:00 Legend Double Dagger -26.2 -28.7 80 19 17 4.8 101.00 -37 Snow
10:00 Legend Double Dagger -24.7 -27.1 81 20 21 6.4 100.98 -37 Fog
11:00 Legend Double Dagger -23.5 -25.8 82 20 24 4.0 100.99 -36 Haze
12:00 Legend Double Dagger -22.9 -25.2 82 22 18 11.3 100.98 -34 LegendNANA
13:00 Legend Double Dagger -22.1 -24.3 83 22 17 16.1 100.94 -32 LegendNANA
14:00 Legend Double Dagger -21.6 -23.6 84 24 17 14.5 100.93 -32 LegendNANA
15:00 Legend Double Dagger -21.4 -23.4 84 21 17 16.1 100.93 -31 LegendNANA
16:00 Legend Double Dagger -21.7 -23.7 84 21 18 16.1 100.93 -32 LegendNANA
17:00 Legend Double Dagger -21.6 -23.6 84 23 13 16.1 100.94 -30 LegendNANA
18:00 Legend Double Dagger -21.4 -23.4 84 24 9 16.1 100.95 -28 Snow
19:00 Legend Double Dagger -21.1 -23.1 84 27 11 16.1 100.97 -29 Snow
20:00 Legend Double Dagger -21.5 -23.5 84 30 9 16.1 100.97 -29 Snow
21:00 Legend Double Dagger -21.8 -23.9 84 30 11 8.1 100.97 -30 Snow
22:00 Legend Double Dagger -22.3 -24.5 83 32 11 6.4 100.98 -30 Snow
23:00 Legend Double Dagger -23.8 -26.2 81 33 15 6.4 100.97 -34 Fog

Notes on Data Quality.

Legend
  • E = Estimated
  • M = Missing
  • NA = Not Available
  • ‡ = Partner data that is not subject to review by the National Climate Archives